This is the latest recevied weather packets stored in our database for station/object SV1JSO-13. If no packets are shown the sender has not sent any weather packets the latest 10 day(s).
| Time | Temp. | Humidity | Pressure | Rain* | Wind** | Luminosity | Snow |
|---|---|---|---|---|---|---|---|
| 1788422700 | 31.11° C | 37% | 1007.3 hPa | 0 mm | - | 573 W/m² | - |
| 1788422400 | 30.56° C | 37% | 1007.4 hPa | 0 mm | - | 550 W/m² | - |
| 1788422100 | 30.56° C | 37% | 1007.2 hPa | 0 mm | - | 382 W/m² | - |
| 1788421800 | 30.56° C | 37% | 1007.2 hPa | 0 mm | - | 491 W/m² | - |
| 1788421500 | 31.11° C | 37% | 1007.4 hPa | 0 mm | - | 284 W/m² | - |
| 1788421200 | 30.56° C | 37% | 1007.4 hPa | 0 mm | - | 494 W/m² | - |
| 1788420900 | 30.56° C | 37% | 1007.2 hPa | 0 mm | - | 220 W/m² | - |
| 1788420600 | 31.11° C | 37% | 1007.2 hPa | 0 mm | - | 443 W/m² | - |
| 1788420300 | 31.11° C | 36% | 1007.4 hPa | 0 mm | - | 217 W/m² | - |
| 1788420000 | 31.11° C | 36% | 1007.3 hPa | 0 mm | - | 445 W/m² | - |
| 1788419700 | 30.56° C | 36% | 1007.2 hPa | 0 mm | - | 431 W/m² | - |
| 1788419400 | 30.56° C | 36% | 1007.3 hPa | 0 mm | - | 415 W/m² | - |
| 1788419100 | 30.56° C | 37% | 1007.3 hPa | 0 mm | - | 386 W/m² | - |
| 1788418800 | 30.56° C | 37% | 1007.2 hPa | 0 mm | - | 389 W/m² | - |
| 1788418500 | 30° C | 38% | 1007.3 hPa | 0 mm | - | 371 W/m² | - |
| 1788418200 | 30° C | 39% | 1007.2 hPa | 0 mm | - | 354 W/m² | - |
| 1788417900 | 30° C | 39% | 1007.3 hPa | 0 mm | - | 341 W/m² | - |
| 1788417600 | 30° C | 40% | 1007.2 hPa | 0 mm | - | 322 W/m² | - |
| 1788417300 | 29.44° C | 41% | 1007.2 hPa | 0 mm | - | 308 W/m² | - |
| 1788417000 | 29.44° C | 40% | 1007.3 hPa | 0 mm | - | 296 W/m² | - |
| 1788416700 | 30° C | 39% | 1007.2 hPa | 0 mm | - | 281 W/m² | - |
| 1788416400 | 29.44° C | 37% | 1007.2 hPa | 0 mm | - | 267 W/m² | - |
| 1788416100 | 30° C | 37% | 1007.2 hPa | 0 mm | - | 253 W/m² | - |
| 1788415801 | 30° C | 39% | 1007.2 hPa | 0 mm | - | 238 W/m² | - |
| 1788415500 | 29.44° C | 41% | 1007.3 hPa | 0 mm | - | 220 W/m² | - |
* Rain latest hour (hover to see other rain measurements)
** Current wind speed in m/s (hover to see current wind gust speed)